User: anonymous   Login
Location: Bishop�s Knoyle
(51.0728°N, 2.1714°W)
Time: 17:56:55
(UTC+00:00)
Language:

FO-29 - Orbit

View from above orbital plane
View from above orbital plane
View from above satellite
View from above satellite

Ground track
Ground track

The orbit data is extracted from the following two-line orbital elements,

1 24278U 96046B   21341.10795239 -.00000029  00000-0  43869-5 0  9992
2 24278  98.5440  26.0232 0351219  62.3082 301.3232 13.53108340249841
Epoch (UTC): 07 December 2021 02:35:27
Eccentricity: 0.0351219
inclination: 98.5440°
perigee height: 799 km
apogee height: 1322 km
right ascension of ascending node: 26.0232°
argument of perigee: 62.3082°
revolutions per day: 13.53108340
mean anomaly at epoch: 301.3232°
orbit number at epoch: 24984

The dashed part of the orbit path shows where the satellite is in the earth's shadow,  

DLR